Location: Branche des Alpilles
(43.6087°N, 4.6976°E)
Time: 09:52:03
(UTC+00:00)

FENGYUN 1C DEB - Pass Details

Date: 26 June 2021
Orbit: 782 x 878 km, 99.7° (Epoch: 28 July)

Event Time Altitude Azimuth Distance (km) Brightness Sun altitude
Exits shadow 00:17:50 10° 117° (ESE) 2,358 ? -22.6°
Maximum altitude 00:22:01 26° 63° (ENE) 1,534 ? -22.5°
Drops below altitude 10° 00:26:13 10° 8° (N) 2,357 ? -22.3°
Sets 00:28:51 0° 356° (N) 3,284 ? -22.2°
